Tracking 31027 objects as of 19-Jul-2025
HD Live streaming from Space Station
objects crossing your sky now

SL-16 DEB

Track SL-16 DEB now!
10-day predictions


NORAD ID: 39867
Int'l Code: 1992-093LV
Perigee: 735.4 km
Apogee: 934.5 km
Inclination: 71.0 °
Period: 101.5 minutes
Semi major axis: 7205 km
RCS: 0.0087 m2 (small)
Launch date: December 25, 1992
Source: Commonwealth of Independent States (former USSR) (CIS)
Launch site: TYURATAM MISSILE AND SPACE COMPLEX (TTMTR)

Note: This is SATELLITE DEBRIS
Your satellite tracking list
FENGYUN 1C DEB
Track 1 satellite(s)




NASA's NSSDC Master Catalog

Two Line Element Set (TLE):
1 39867U 92093LV  25199.55746295  .00004027  00000-0  17646-2 0  9994
2 39867  70.9644 133.6306 0138141 133.3461 227.9275 14.19263691 67881
Source of the keplerian elements: AFSPC